CAPE
0 0 0 0 0 0 0 0 0 0 0 0 0 0 223 130 353 770 4 759 1250 898 770 477 710 984 770 599 267 117 21 2 50 101 96 63 157 197 74 95 198 323 373 270 166 130 0 13 129
0 0 0 0 0 0 0 0 0 4 0 0 0 16 711 670 146 626 68 924 1448 998 631 731 702 884 901 781 386 104 48 11 83 124 92 101 356 281 94 174 256 209 156 98 12 0 4 166 279
0 0 0 0 0 0 0 0 0 0 0 0 0 21 1098 5 636 556 194 1181 1443 1253 790 963 686 872 907 901 581 219 182 96 161 159 96 101 434 424 167 148 198 237 230 200 120 28 34 260 219
0 0 0 0 0 0 0 0 0 0 0 0 0 0 825 1181 691 319 480 1512 1149 1125 1079 1020 769 924 1023 998 826 431 309 199 210 150 113 73 387 475 270 64 136 285 331 295 142 23 20 26 17
0 0 0 0 0 0 0 0 0 0 0 0 0 0 1368 1142 694 158 561 1190 795 643 1622 843 758 966 1160 1204 991 664 498 258 219 129 122 52 266 497 365 73 16 266 348 256 147 21 34 97 158
0 0 0 0 0 0 0 0 0 3 0 0 0 0 1353 1163 563 239 489 729 665 688 1362 740 814 843 1027 1278 1111 855 613 300 158 114 102 22 39 305 323 177 0 77 303 233 74 26 26 137 388
0 0 0 0 0 0 0 0 0 0 0 0 0 0 1186 1052 706 386 542 525 571 1349 1040 779 923 1129 1095 1232 1212 898 604 258 118 137 136 6 0 20 125 121 0 0 32 213 119 6 77 149 173
0 0 0 0 0 0 0 0 0 0 0 0 0 0 751 1025 827 605 503 490 453 1030 728 613 916 946 1174 1347 1185 829 550 257 194 241 163 0 0 0 67 7 0 0 0 1 59 29 0 0 0
0 0 0 0 0 0 0 0 0 0 0 0 0 1 2012 1595 1093 822 568 569 489 778 439 232 333 665 756 1196 1275 946 755 540 484 519 307 18 0 71 100 0 0 0 0 0 0 0 0 0 0
0 0 0 0 0 0 0 0 0 0 0 0 0 220 1395 2296 1665 1059 732 687 608 652 324 169 152 149 71 331 1155 1094 1049 922 772 722 456 6 0 28 28 0 83 2 0 0 0 0 0 0 0
0 0 0 0 0 0 0 0 0 0 0 0 0 4 200 1170 1977 1385 933 735 719 598 460 196 220 82 13 21 656 886 1009 939 864 625 347 0 0 22 0 40 22 118 16 0 0 0 0 0 0
0 0 0 0 0 0 0 0 0 0 0 0 0 0 0 558 980 1832 1266 949 867 587 667 366 461 95 102 192 208 58 99 67 124 138 250 1 0 0 0 34 27 50 20 0 0 0 0 0 0
0 0 0 0 0 0 0 0 0 0 0 0 0 0 3 180 747 807 1676 1305 1054 748 726 464 682 292 406 625 431 178 238 88 43 22 230 151 0 0 34 0 73 270 4 17 4 0 14 0 0
0 0 0 0 0 0 0 0 0 0 0 0 0 0 0 0 0 74 810 1379 1275 990 807 621 757 615 529 1365 740 387 525 308 306 169 201 146 2 0 19 12 69 0 37 53 154 126 67 157 55
0 0 0 0 0 0 0 0 0 0 0 0 0 0 0 0 0 0 0 1098 2120 1186 939 927 1121 961 719 1416 1169 696 703 824 696 699 519 221 224 9 0 34 1 0 0 1 30 14 62 59 14
0 0 0 0 0 0 0 0 0 0 0 0 0 0 0 0 0 0 0 0 1750 1809 1236 1459 1399 1819 1224 1470 1971 1224 1380 847 1086 1018 1359 755 581 684 1310 304 601 237 391 348 180 168 258 192 220
0 0 0 0 0 0 0 0 0 0 0 0 0 0 0 0 0 0 0 0 1732 1861 1437 1905 1603 1974 1592 1847 1836 1884 1521 1718 1279 1529 1518 1647 1495 1149 1182 1338 1039 1358 1411 1411 1318 1239 1075 831 739
0 0 0 0 0 0 0 0 0 0 0 0 0 0 0 0 0 0 0 0 1632 2845 2227 2153 1972 2138 2196 2351 2021 1804 2016 1834 1871 1589 1776 2010 1773 1685 1654 1312 1762 1550 1251 1116 1248 1239 1086 956 959
0 0 0 0 0 0 0 0 0 0 0 0 0 0 0 0 0 0 0 0 45 2747 3079 2423 2643 2822 2951 2689 2537 2466 1860 2212 1894 2208 2046 2198 2146 2025 1935 1900 1722 1423 1512 1083 1165 1022 1384 1232 875
0 0 0 0 0 0 0 0 0 0 0 0 0 0 0 0 0 0 0 0 0 925 2496 3326 3170 3019 3314 3328 3224 2938 2963 2695 2641 2459 2473 2600 2615 2438 1969 1934 1741 1697 1622 1373 1331 1447 1245 1121 1062
0 0 0 0 0 0 0 3 5 1 1 0 0 0 0 0 0 0 0 0 0 6 921 2279 3533 3392 3301 3447 3313 2858 2526 2924 2880 3044 2524 2436 2398 2272 2069 2101 1768 1533 1144 1234 1370 1141 946 878 1015
0 0 0 0 2 0 0 2 19 3 0 0 0 0 0 0 0 0 0 0 0 0 48 549 2008 3277 3690 3580 2765 2700 2393 2623 2922 3039 3149 2911 2613 2287 2127 1723 1761 1584 968 1352 1104 1601 1534 1442 1282
67 48 1 0 1 12 0 28 3 14 0 0 0 0 0 0 0 0 0 0 0 0 0 0 62 1624 3427 2976 2714 2610 2482 2369 2394 2439 2595 2666 2521 2328 2225 2017 1708 1708 1715 1399 1485 1527 1401 1620 1188
23 67 36 3 9 30 29 61 14 1 6 0 0 0 0 0 0 0 0 0 0 0 0 0 7 421 2421 2659 2299 2375 2180 1539 1578 1959 2139 2347 2038 2050 1841 1810 1844 1685 1493 1546 1461 1404 1465 1080 972
28 0 0 2 17 21 5 14 13 2 4 0 0 0 0 0 0 0 0 0 0 0 0 6 34 84 2042 2788 2499 2236 1815 2268 2497 2361 2085 1924 1844 1597 1336 1396 1321 1217 1222 1276 1329 1213 1040 980 873
90 47 157 46 0 0 2 1 2 0 0 0 0 2 0 0 0 0 0 0 0 0 0 4 84 127 1736 2686 2722 2037 1545 2330 2205 2266 2283 1666 1509 1485 1230 1102 1071 1055 989 1007 876 793 739 975 976
28 7 0 64 62 55 36 5 0 0 0 0 0 0 1 0 0 0 0 0 0 0 0 76 188 1157 2713 2966 2412 2382 2352 1990 2272 1850 1442 1235 1183 1080 1107 928 861 633 466 421 390 377 381 514 454
71 126 45 2 30 16 27 30 0 0 0 0 0 0 0 0 0 0 0 0 0 0 87 504 2081 2328 2394 2170 2317 2137 2166 1705 1120 851 695 556 468 384 321 293 278 244 286 300 310 388 297 219 140
22 61 0 0 65 4 18 79 262 90 33 1 0 0 0 0 893 608 0 0 1 3 1596 1878 1746 1851 1633 1503 1063 1017 818 598 491 414 363 333 332 348 104 53 36 4 0 0 0 0 6 0 0
15 41 3 6 1 14 11 0 1 48 152 0 35 37 346 1423 1707 1765 879 955 1338 1812 1751 1724 1391 1196 917 610 545 449 355 187 39 2 0 0 0 0 0 0 0 0 0 0 0 0 0 0 0
CIN
0 0 0 0 0 0 0 0 0 0 0 0 0 0 -64 -167 -193 -73 -68 -191 -300 -432 -495 -552 -453 -348 -372 -412 -548 -634 -725 -775 -628 -568 -554 -565 -458 -399 -472 -420 -306 -204 -153 -185 -239 -238 0 -349 -215
0 0 0 0 0 0 0 0 0 -28 0 0 0 -43 -33 -148 -253 -97 -207 -209 -309 -442 -525 -491 -476 -388 -349 -360 -485 -655 -684 -714 -587 -549 -561 -528 -323 -343 -458 -347 -275 -261 -267 -298 -383 -31 -156 -179 -153
0 0 0 0 0 0 0 0 0 0 0 0 0 -33 -57 -33 -60 -92 -217 -213 -339 -411 -473 -455 -485 -417 -369 -344 -411 -564 -561 -606 -526 -515 -551 -525 -273 -258 -381 -359 -298 -240 -212 -209 -246 -324 -301 -164 -169
0 0 0 0 0 0 0 0 0 0 0 0 0 -1 -17 -29 -44 -160 -207 -216 -341 -393 -392 -475 -495 -434 -386 -365 -368 -452 -473 -516 -489 -508 -521 -541 -309 -242 -311 -426 -330 -207 -161 -167 -229 -330 -330 -311 -312
0 0 0 0 0 0 0 0 0 0 0 0 0 0 -22 -30 -127 -181 -191 -257 -337 -422 -345 -498 -496 -422 -352 -321 -340 -394 -420 -491 -483 -518 -494 -550 -375 -236 -261 -416 -457 -223 -185 -209 -252 -340 -329 -276 -246
0 0 0 0 0 0 0 0 0 -4 0 0 0 0 -21 -54 -127 -171 -180 -237 -312 -398 -408 -534 -488 -448 -379 -299 -314 -353 -391 -479 -514 -515 -512 -575 -533 -323 -288 -342 -133 -382 -225 -252 -310 -351 -366 -274 -198
0 0 0 0 0 0 0 0 0 0 0 0 0 0 -28 -51 -123 -151 -174 -203 -284 -358 -432 -531 -479 -405 -382 -331 -313 -354 -407 -498 -525 -502 -498 -503 0 -569 -417 -398 0 0 -411 -271 -301 -392 -298 -261 -253
0 0 0 0 0 0 0 0 0 0 0 0 0 0 -21 -26 -101 -125 -168 -181 -254 -357 -466 -552 -477 -455 -383 -322 -339 -385 -420 -501 -510 -461 -491 0 0 0 -465 -530 0 0 0 -144 -334 -342 0 0 0
0 0 0 0 0 0 0 0 0 0 0 0 0 -2 -22 -19 -49 -93 -119 -151 -234 -315 -501 -585 -571 -508 -461 -359 -316 -373 -380 -411 -409 -375 -422 -539 0 -496 -431 0 0 0 0 0 0 0 0 0 0
0 0 0 0 0 0 0 0 0 0 0 0 0 -18 -28 -32 -26 -60 -105 -124 -203 -262 -460 -539 -580 -600 -608 -526 -362 -341 -322 -329 -338 -334 -388 -664 0 -520 -482 0 -421 -56 0 0 0 0 0 0 0
0 0 0 0 0 0 0 0 0 0 0 0 0 -3 -41 -41 -23 -18 -53 -84 -140 -226 -345 -489 -522 -607 -613 -605 -476 -384 -326 -323 -320 -360 -433 0 0 -367 0 -416 -422 -373 -416 0 0 0 0 0 0
0 0 0 0 0 0 0 0 0 0 0 0 0 0 0 -25 -38 -8 -7 -38 -80 -166 -258 -416 -450 -563 -531 -528 -555 -618 -567 -598 -569 -531 -461 -58 -31 0 -1 -92 -390 -384 -377 0 0 0 0 0 0
0 0 0 0 0 0 0 0 0 0 0 0 0 0 -8 -17 -15 -37 -8 -3 -7 -90 -189 -345 -377 -462 -415 -393 -438 -511 -481 -559 -578 -589 -446 -463 0 -82 -381 0 -192 -282 -142 -398 -142 0 -129 0 0
0 0 0 0 0 0 0 0 0 0 0 0 0 0 0 0 0 -35 -45 -25 -18 -29 -141 -253 -316 -373 -340 -201 -339 -398 -350 -414 -411 -466 -430 -436 -172 0 -364 -352 -298 0 -108 -276 -247 -226 -202 -151 -198
0 0 0 0 0 0 0 0 0 0 0 0 0 0 0 0 0 0 0 -30 -21 -26 -91 -169 -223 -302 -280 -186 -244 -294 -281 -248 -262 -265 -311 -390 -341 -392 -1 -326 -160 0 0 -95 -229 -227 -165 -162 -186
0 0 0 0 0 0 0 0 0 0 0 0 0 0 0 0 0 0 0 0 -20 -33 -51 -93 -180 -199 -212 -174 -108 -185 -138 -217 -165 -151 -114 -223 -231 -185 -59 -198 -124 -169 -112 -89 -116 -93 -63 -82 -77
0 0 0 0 0 0 0 0 0 0 0 0 0 0 0 0 0 0 0 0 -8 -52 -100 -35 -153 -170 -183 -111 -103 -91 -116 -84 -115 -67 -46 -83 -110 -114 -92 -61 -53 -10 -15 -9 -11 -14 -22 -22 -27
0 0 0 0 0 0 0 0 0 0 0 0 0 0 0 0 0 0 0 0 -11 -12 -68 -29 -95 -92 -112 -60 -81 -100 -68 -82 -51 -50 -30 -23 -69 -81 -61 -54 -16 -9 -16 -19 -15 -20 -22 -18 -16
0 0 0 0 0 0 0 0 0 0 0 0 0 0 0 0 0 0 0 0 -25 -12 -15 -34 -43 -14 -33 -35 -49 -49 -112 -55 -63 -33 -20 -8 -39 -32 -33 -28 -20 -6 -13 -50 -14 -17 -4 -17 -20
0 0 0 0 0 -12 -5 0 0 0 0 0 0 0 0 0 0 0 0 0 0 -56 -31 -20 -24 -31 -12 -19 -34 -30 -24 -23 -26 -26 -10 -10 -14 -26 -14 -14 -15 -2 -11 -23 -13 -8 -17 -26 -22
0 0 0 0 0 0 -4 -15 -2 -9 -2 0 0 0 0 0 0 0 0 0 0 -126 -53 -28 -14 -19 -24 -25 -10 -20 -17 -2 -3 -4 -16 -22 -30 -35 -31 -19 -19 -6 -24 -16 -31 -32 -38 -31 -29
0 0 0 0 -6 0 0 -9 -3 -10 -1 0 0 0 0 0 0 0 0 0 0 0 -262 -110 -24 -3 -28 -13 -43 -39 -55 -20 -15 -12 -12 -27 -30 -35 -48 -41 -21 -26 -45 -33 -51 -20 -27 -9 -19
-9 -7 -1 0 -8 -9 -1 -21 -61 -4 0 0 0 0 0 0 0 0 0 0 0 0 0 0 -268 -59 -33 -58 -15 -7 -28 -63 -52 -38 -39 -4 -14 -26 -13 -22 -21 -5 -11 -11 -18 -15 -7 -3 -8
-33 -34 -60 -5 -7 -3 -9 -5 -20 -27 -7 0 0 0 0 0 0 0 0 0 0 0 0 0 -439 -186 -52 -63 -36 -28 -90 -95 -55 -70 -40 -26 -27 -18 -5 -3 -4 -4 -6 -6 -3 -4 -5 -27 -14
-15 0 -8 -8 -2 -6 -11 -7 -8 -4 -5 0 0 0 0 0 0 0 0 0 0 0 0 -477 -358 -298 -59 -29 -29 -39 -108 -11 -7 -14 -28 -34 -15 -20 -29 -9 -6 -4 -8 -6 -6 -8 -10 -8 -7
-6 -11 -3 -30 0 0 -8 -2 -3 0 0 0 0 -2 0 0 0 0 0 0 0 0 0 -444 -324 -246 -84 -17 -12 -57 -71 -9 -10 -9 -6 -20 -12 -14 -9 -13 -16 -24 -21 -14 -26 -21 -18 -6 -6
-21 -25 0 -24 -6 -4 -6 -8 0 0 0 0 0 0 -5 0 0 0 0 0 0 0 -33 -306 -230 -78 -3 -1 -7 -9 -4 -5 -6 -17 -47 -50 -28 -22 -11 -42 -30 -42 -44 -47 -47 -49 -57 -36 -56
-8 -15 -15 -106 -9 -21 -56 -42 0 0 -3 0 0 0 0 0 0 -3 0 0 0 0 -71 -93 -32 -29 -8 -9 -4 -7 -5 -16 -123 -158 -148 -139 -132 -117 -111 -116 -94 -73 -60 -61 -54 -34 -55 -80 -84
-8 -4 0 0 -4 -7 -50 -29 -37 -84 -1 -13 -1 0 0 0 -24 -44 0 0 -2 -15 -82 -45 -50 -49 -19 -16 -55 -61 -106 -191 -211 -210 -180 -162 -127 -107 -177 -164 -106 -57 0 0 0 0 -47 0 0
-10 -32 -4 -3 -4 -13 -32 0 -193 -173 -27 -1 -14 -4 -13 -24 -60 -81 -35 -77 -83 -73 -52 -53 -59 -55 -45 -78 -105 -132 -191 -257 -359 -21 0 0 0 0 0 0 0 0 0 0 0 0 0 0 0
Wind_Speed
29 29 28 29 28 30 35 36 33 20 19 14 18 20 18 9 18 10 10 10 17 16 15 13 13 14 14 13 14 15 15 15 15 16 18 19 20 21 23 23 23 23 23 22 22 22 22 22 22
29 29 27 26 33 36 37 35 36 28 11 14 19 18 12 13 5 5 8 14 15 17 16 13 15 17 18 17 16 15 15 15 14 16 18 19 19 20 21 21 21 22 21 21 21 21 20 21 21
28 28 28 25 36 42 37 35 27 13 12 15 18 17 12 15 9 5 12 14 16 17 16 14 17 20 21 20 18 15 14 14 14 16 17 18 18 19 19 20 20 20 20 20 20 20 20 20 20
25 25 29 34 40 39 42 39 32 14 9 14 21 16 10 10 12 4 15 16 16 17 17 17 17 17 18 16 15 15 14 15 16 15 16 17 18 18 19 19 18 18 19 19 19 18 18 18 17
29 29 35 37 43 44 42 39 33 27 13 16 19 20 8 7 7 10 12 15 16 18 15 16 15 15 15 16 16 16 16 15 16 15 16 17 18 18 18 17 17 17 17 16 16 16 15 14 14
30 28 37 39 46 44 44 43 38 22 27 26 14 24 8 3 4 9 12 11 16 15 14 15 14 14 14 16 17 16 16 16 16 15 15 16 17 16 16 15 15 14 14 14 13 13 11 11 11
37 37 42 44 46 44 43 41 40 27 26 31 17 26 11 6 2 7 7 11 12 12 10 13 13 12 13 15 16 16 16 15 14 13 14 14 14 14 13 12 12 11 11 10 10 9 8 7 7
35 40 49 48 46 48 43 40 35 24 25 30 19 22 14 6 3 5 5 7 8 9 10 10 11 13 12 11 13 14 14 13 12 12 11 11 11 10 10 9 9 8 8 8 7 7 6 6 5
32 46 53 52 49 45 41 41 18 19 30 33 17 15 6 2 4 6 5 6 6 7 9 12 11 10 10 9 9 9 10 10 9 8 7 7 7 7 7 6 6 6 6 6 6 5 5 4 4
40 49 55 46 48 50 47 45 40 25 32 35 21 14 10 9 8 9 8 8 7 6 6 9 12 10 9 6 5 3 4 2 2 2 2 2 3 4 5 4 4 4 5 5 5 5 5 6 6
38 56 47 47 48 51 50 50 43 32 33 33 35 22 17 16 15 13 12 12 10 8 7 7 7 8 8 5 4 3 3 2 2 1 0 1 1 2 2 2 3 4 4 6 5 6 7 7 7
44 47 50 49 48 46 50 51 46 34 36 31 34 26 23 23 21 18 15 13 12 11 9 9 8 8 6 5 4 4 4 2 1 2 2 1 1 0 0 2 3 4 5 6 7 7 7 6 8
36 43 47 47 47 49 46 50 48 41 31 29 26 20 19 21 21 21 20 15 14 14 12 11 9 9 8 5 5 5 5 4 1 2 2 1 3 5 4 5 7 5 5 6 7 8 9 9 10
41 44 49 46 50 48 47 50 41 44 37 33 32 23 22 27 26 25 25 25 17 17 16 15 13 11 10 7 5 8 9 4 2 1 2 2 4 8 7 8 12 13 11 8 7 8 11 10 14
41 51 51 48 47 52 46 50 54 41 42 45 40 39 32 26 27 26 28 29 21 19 21 16 14 13 13 10 7 8 11 7 5 3 2 3 2 7 7 8 8 11 12 15 17 18 19 19 20
43 47 52 52 47 47 42 62 49 44 41 45 43 44 39 37 32 31 24 29 27 21 16 17 14 13 12 13 11 10 12 10 7 6 4 3 3 7 8 9 10 10 11 12 13 15 17 17 17
45 51 48 50 45 46 37 60 50 41 44 49 48 45 44 42 41 39 31 29 27 22 18 19 15 15 12 15 16 13 12 10 11 8 9 6 6 7 11 11 13 14 15 16 17 17 19 22 23
48 49 50 54 44 41 48 57 46 45 45 48 44 45 45 43 41 36 35 28 25 21 21 17 14 13 13 14 16 16 15 14 12 14 12 11 9 8 9 13 15 14 14 16 18 20 21 23 24
46 48 53 51 41 45 47 54 50 40 38 36 44 45 43 44 40 35 34 28 29 24 21 21 18 16 16 16 16 16 16 15 15 14 14 13 10 10 11 12 14 16 16 17 18 17 19 21 22
42 47 55 50 47 46 45 54 48 42 40 41 40 37 36 37 36 41 33 30 28 28 25 23 21 20 18 18 17 17 16 17 16 16 16 14 12 11 11 14 16 16 15 15 17 18 20 21 21
45 46 46 49 46 50 45 50 48 41 37 37 37 40 33 33 37 37 36 32 28 27 26 24 22 21 20 18 16 17 17 18 16 16 14 13 11 12 15 17 19 20 18 17 15 18 18 21 21
44 43 48 48 48 52 45 53 49 41 42 41 39 35 33 29 32 30 30 30 28 27 25 22 21 19 18 18 19 18 19 20 17 15 15 13 14 16 18 19 21 20 21 17 17 17 19 20 23
48 40 41 46 47 49 54 49 48 41 47 46 45 39 36 31 33 37 29 23 23 21 22 22 22 21 19 19 22 21 17 18 18 18 17 17 17 18 19 18 19 19 21 21 18 18 18 20 23
44 41 47 42 46 56 51 53 51 50 41 40 40 42 40 35 31 33 34 27 23 20 21 21 22 23 20 17 18 16 13 13 14 14 15 16 15 16 16 16 15 17 18 20 21 21 22 22 21
39 38 39 39 48 55 45 53 53 44 47 40 41 37 35 34 33 30 31 31 25 25 21 20 21 22 22 19 18 16 15 19 11 13 13 13 13 14 14 15 15 17 19 21 22 22 23 23 23
46 50 44 39 44 51 42 53 51 52 49 41 32 37 29 29 28 28 28 27 27 23 22 20 19 20 21 19 17 15 14 13 11 10 11 14 14 13 13 14 15 18 19 20 22 22 23 25 25
44 40 46 47 37 36 38 38 43 44 42 42 28 23 24 25 26 25 23 23 23 23 20 20 18 16 16 16 14 14 12 10 7 7 8 11 12 12 11 15 18 19 20 21 23 23 25 26 27
43 36 44 39 41 34 35 30 35 34 37 37 28 23 19 21 21 21 21 20 20 21 17 17 14 13 13 13 11 10 8 5 4 6 8 10 10 11 13 16 17 17 18 20 21 22 23 26 28
43 43 33 35 29 38 29 31 22 33 16 23 21 21 22 18 15 23 25 19 17 16 16 14 12 10 10 10 9 8 6 4 2 4 7 9 10 11 13 13 15 17 20 23 25 26 25 28 28
31 43 42 31 29 47 30 34 33 23 15 14 15 17 16 13 12 12 11 10 15 14 12 10 9 10 9 10 9 7 4 2 1 4 7 9 11 13 15 17 18 19 22 22 24 26 28 30 31
Wind_Direction
266 267 266 267 258 249 240 235 241 255 299 308 298 273 1 315 282 333 76 74 94 101 108 108 109 110 109 105 101 97 90 85 80 77 79 81 81 82 87 85 82 83 84 84 85 87 87 86 80
270 269 267 269 252 243 240 236 244 264 339 308 291 273 355 344 12 44 53 87 94 103 108 106 108 110 112 111 107 103 96 91 83 81 82 84 85 85 84 82 82 83 83 85 86 86 83 88 82
270 266 265 266 252 239 240 235 241 303 313 304 289 286 334 292 31 50 82 95 95 102 107 107 110 112 115 115 112 107 100 94 88 86 87 87 88 85 83 85 82 81 83 85 89 90 87 91 89
272 268 264 259 249 244 233 246 256 299 316 296 276 292 321 24 67 47 100 101 99 102 107 111 111 111 112 111 112 111 106 101 97 91 89 92 93 90 89 88 83 82 84 89 90 87 87 86 85
264 263 257 258 250 242 242 235 239 270 301 286 272 276 314 356 45 90 105 102 102 105 101 112 111 109 109 111 114 114 112 108 104 97 95 97 102 98 94 90 86 84 84 80 83 85 85 80 76
257 261 257 257 249 245 245 248 250 279 271 270 275 265 301 10 77 104 111 101 104 106 103 112 112 111 109 113 116 117 115 113 109 104 101 103 107 105 97 91 89 87 85 81 85 87 83 78 77
252 254 254 254 251 251 249 249 259 278 267 260 277 267 280 276 109 115 117 107 103 102 108 115 114 111 111 114 117 119 119 117 112 108 105 106 108 107 100 95 89 85 85 79 73 72 65 58 66
256 257 253 252 252 251 252 254 268 265 266 264 293 261 275 226 205 144 132 124 115 105 116 129 122 119 115 114 120 123 123 122 119 115 111 109 109 109 102 91 80 73 71 63 54 43 31 37 43
259 253 251 250 250 253 255 257 295 279 265 262 275 271 313 198 204 202 198 164 134 123 118 131 134 131 126 121 124 123 123 122 119 111 107 102 97 104 100 90 76 60 50 44 39 29 30 25 10
252 252 251 257 255 253 253 257 263 272 262 257 267 258 263 258 242 222 203 196 188 172 144 147 139 139 137 135 148 157 136 134 120 105 99 79 89 98 104 90 66 45 25 20 14 6 360 349 344
255 253 259 261 260 257 257 254 263 269 258 259 255 252 258 257 250 237 227 221 216 211 214 182 175 155 149 150 166 220 240 251 257 207 150 139 92 101 121 16 7 351 346 342 341 336 330 329 330
261 259 259 262 262 263 258 258 265 272 261 258 257 257 259 248 247 245 233 226 218 215 213 195 194 180 174 168 184 206 235 224 227 168 152 169 296 250 27 322 322 333 329 315 318 319 318 320 321
264 264 261 261 263 262 265 260 261 262 263 260 270 260 243 252 251 252 252 237 222 219 215 203 198 199 197 188 197 212 236 240 191 183 193 260 278 306 306 313 309 309 324 320 316 313 308 305 312
270 268 265 264 259 261 263 260 263 254 261 258 258 260 254 256 260 263 257 256 226 218 213 212 204 200 205 237 203 233 246 231 201 207 241 230 284 308 311 312 316 311 318 316 307 310 317 313 317
273 267 265 263 261 260 262 261 255 258 256 258 257 257 261 256 260 259 259 255 260 227 216 212 210 199 210 239 224 237 247 253 263 264 188 185 259 299 306 318 315 313 314 316 320 320 325 324 319
273 268 263 259 263 262 260 256 258 257 257 256 257 256 258 257 259 262 260 259 253 233 223 232 208 215 212 232 253 246 259 260 264 275 267 219 263 289 311 307 315 316 315 316 315 314 312 314 318
267 266 263 266 263 260 256 257 259 260 256 255 255 255 255 257 258 258 260 256 245 237 214 219 212 212 215 235 249 257 257 264 271 273 282 262 275 286 292 307 309 317 324 324 325 324 321 318 319
267 266 266 265 264 261 259 258 261 258 258 258 257 255 254 253 254 252 254 250 251 246 240 229 230 232 222 238 244 254 265 267 274 278 279 280 276 283 295 295 309 312 314 312 315 313 315 317 318
270 268 266 266 265 263 262 258 258 255 254 260 254 257 249 250 252 254 248 246 244 249 239 238 235 235 226 232 238 250 253 265 267 276 280 284 274 283 288 300 305 303 311 312 312 309 313 314 316
267 267 265 269 268 266 263 259 258 254 249 255 256 259 253 249 252 252 243 244 240 239 243 244 234 228 229 237 243 254 260 267 271 275 282 289 284 290 291 301 304 303 301 303 309 311 311 312 317
267 266 266 266 268 264 269 261 256 258 249 253 252 255 255 251 255 249 247 239 239 237 236 235 231 230 230 234 245 255 264 273 270 276 281 288 288 294 298 302 302 304 299 292 308 311 309 310 315
266 267 266 265 265 259 259 260 257 254 256 257 251 247 248 247 251 253 244 240 232 232 234 233 245 227 228 237 243 250 260 266 280 280 294 291 292 296 298 300 301 300 312 323 320 314 312 310 313
274 274 267 266 262 263 256 259 256 255 254 255 255 251 249 243 247 251 251 237 223 220 223 226 232 239 237 235 254 255 259 270 276 282 288 293 295 298 300 301 302 304 308 312 316 314 316 314 315
270 273 272 262 261 256 256 254 253 253 254 254 252 252 251 247 246 247 249 247 231 223 227 231 233 240 237 226 240 241 246 266 272 279 287 295 299 303 305 308 309 311 312 314 316 317 318 319 318
268 265 265 255 253 256 257 255 252 255 255 260 261 249 245 245 246 242 242 243 241 226 223 228 232 233 238 232 237 241 252 274 259 283 293 297 302 308 309 312 315 317 316 316 319 322 322 322 320
263 253 256 261 258 258 255 254 254 252 257 258 279 251 239 238 240 239 241 235 234 231 224 226 223 229 229 230 236 243 250 264 274 283 299 310 313 314 320 326 329 327 329 330 330 328 327 326 325
256 259 254 257 259 262 261 260 257 253 249 250 265 266 233 240 236 234 237 232 230 230 228 218 222 225 222 224 231 239 240 253 265 300 317 329 334 339 335 333 331 331 332 330 328 328 327 325 325
252 262 231 245 255 255 259 247 252 248 242 240 244 247 247 242 245 244 231 229 222 222 208 203 206 211 220 222 226 227 220 232 271 304 322 332 343 345 342 340 339 341 343 341 338 336 334 331 327
246 240 252 252 259 247 261 262 271 267 224 223 228 234 243 241 255 257 249 239 219 190 187 188 199 209 209 209 203 194 201 222 279 327 338 349 357 1 1 360 356 352 348 342 337 336 338 334 333
242 199 229 249 250 226 251 232 249 273 244 195 226 222 228 230 253 277 225 182 157 164 177 189 186 182 191 184 176 169 166 177 345 354 359 1 2 0 355 352 351 348 345 342 340 340 336 334 332